Regional Weather Roundup
Issued by NWS Nashville, TN

Home | Current Version | Previous Version | Text Only | Print | Product List | Glossary On
Versions: 1 2 3 4 5 6 7 8 9 10 11 12 13 14 15 16 17 18 19 20 21 22 23 24 25 26 27 28 29 30 31 32 33 34 35 36 37 38 39 40 41 42 43 44 45 46 47 48 49 50
000
ASUS44 KOHX 060315
RWROHX
MIDDLE TENNESSEE HOURLY WEATHER ROUNDUP
NATIONAL WEATHER SERVICE NASHVILLE TN
1000 PM CDT TUE MAY 05 2015

NOTE: "FAIR" INDICATES FEW OR NO CLOUDS BELOW 12,000 FEET WITH
NO SIGNIFICANT WEATHER AND/OR OBSTRUCTIONS TO VISIBILITY.

* THESE REPORTS ARE NOT UNDER NWS QUALITY CONTROL AND MAY NOT
  REPORT WEATHER SUCH AS PRECIPITATION AND FOG.


TNZ005>011-023>034-057-059-062>066-078-080-060400
...NORTHERN MIDDLE TENNESSEE...

CITY           SKY/WX    TMP DP  RH WIND       PRES   REMARKS
CLARKSVILLE    CLEAR     67  53  61 CALM      30.19R
CROSSVILLE     CLOUDY    64  53  67 CALM      30.28R
NASHVILLE      CLEAR     69  56  62 S5        30.21R
PORTLAND       CLEAR     63  55  77 SE3       30.20R
ROCKWOOD       CLOUDY    70  53  54 VRB7      30.26
SMYRNA         CLEAR     65  58  78 CALM      30.22R
SPARTA         PTCLDY    63  59  88 CALM      30.23R
$$
TNZ056-058-060-061-075>077-079-093>097-060400
...SOUTHERN MIDDLE TENNESSEE...

CITY           SKY/WX    TMP DP  RH WIND       PRES   REMARKS
COLUMBIA       CLEAR     63  57  82 S3        30.20R
LEWISBURG      CLEAR     61  55  80 CALM      30.21R
MCMINNVILLE    CLOUDY    66  61  82 CALM      30.24R
SHELBYVILLE    PTCLDY    64  59  82 E3        30.23R
TULLAHOMA      CLOUDY    64  54  68 CALM      30.25R
WINCHESTER     CLOUDY    68  57  68 CALM      30.24R
$$


...KEY TO REMARKS...
VSB - VISIBILITY IN MILES
WCI - WIND CHILL INDEX
HX  - HEAT INDEX



USA.gov is the U.S. government's official web portal to all federal, state and local government web resources and services.